Hourly Data Report for October 05, 2017

All times are specified in Local Standard Time (LST). Add 1 hour to adjust for Daylight Saving Time where and when it is observed.

LYTTON A
BRITISH COLUMBIA

50°13'28.000" N
121°34'55.000" W
224.90 m
1114738
71812
WLY

Download Data

Hourly Data (October 2017)
Hourly Data Report for October 5, 2017
Temp Definition
°C
Dew Point Temp Definition
°C
Rel Hum Definition
%
Wind Dir Definition
10's deg

Wind Spd Definition
km/h
Visibility Definition
km
Stn Press Definition
kPa
Hmdx Definition


Wind Chill Definition


Weather Definition


TIME
00:00 Legend Double Dagger 4.7 0.7 75   0 16.1 99.63     LegendNANA
01:00 Legend Double Dagger 3.7 0.4 79   0 16.1 99.67     LegendNANA
02:00 Legend Double Dagger 3.3 0.5 82   0 16.1 99.69     LegendNANA
03:00 Legend Double Dagger 2.5 0.2 85   0 16.1 99.70     LegendNANA
04:00 Legend Double Dagger 2.3 0.4 87 LegendMM 4 16.1 99.72     LegendNANA
05:00 Legend Double Dagger 2.0 0.2 88   0 16.1 99.77     LegendNANA
06:00 Legend Double Dagger 1.6 0.3 91   0 16.1 99.79     LegendNANA
07:00 Legend Double Dagger 1.3 0.3 93   0 16.1 99.82     LegendNANA
08:00 Legend Double Dagger 1.7 0.5 92 LegendMM 4 16.1 99.82     LegendNANA
09:00 Legend Double Dagger 5.7 -0.9 62 19 4 16.1 99.75     LegendNANA
10:00 Legend Double Dagger 9.6 -1.7 45   0 16.1 99.65     LegendNANA
11:00 Legend Double Dagger 13.3 -2.4 33 LegendMM 4 16.1 99.53     LegendNANA
12:00 Legend Double Dagger 14.8 -1.8 32   0 16.1 99.39     LegendNANA
13:00 Legend Double Dagger 17.2 -2.4 26 LegendMM 4 16.1 99.25     LegendNANA
14:00 Legend Double Dagger 18.7 -2.2 24 LegendMM 5 16.1 99.14     LegendNANA
15:00 Legend Double Dagger 18.9 -1.6 25 LegendMM 4 16.1 99.01     LegendNANA
16:00 Legend Double Dagger 18.2 -1.1 27 LegendMM 4 16.1 98.90     LegendNANA
17:00 Legend Double Dagger 16.0 -1.5 30 1 9 16.1 98.87     LegendNANA
18:00 Legend Double Dagger 13.5 0.4 40 LegendMM 8 16.1 98.85     LegendNANA
19:00 Legend Double Dagger 17.7 -1.0 28 LegendMM 17 16.1 98.85     LegendNANA
20:00 Legend Double Dagger 18.6 -1.6 25 20 41 16.1 98.82     LegendNANA
21:00 Legend Double Dagger 17.4 -1.2 28 19 39 16.1 98.84     LegendNANA
22:00 Legend Double Dagger 16.5 -0.5 31 18 41 16.1 98.82     LegendNANA
23:00 Legend Double Dagger 16.0 -0.2 33 19 35 16.1 98.84     LegendNANA

Notes on Data Quality.

Legend

  • E = Estimated
  • M = Missing
  • NA = Not Available
  • ‡ = Partner data that is not subject to review by the National Climate Archives
Date modified: